ハートレー第3彗星

110P/Hartley 3 (2021)

English version
Home page
Updated on September 18, 2021

---------------------------------------------------------------------

・ プロフィール

・ 写真集

・ 軌道要素

Epoch 2021 Nov. 2.0 TT = JDT 2459520.5
T 2021 Oct. 18.30271 TT                                 Rudenko
q   2.4557239            (2000.0)            P               Q
n   0.14415761     Peri.  167.44443     -0.09111945     -0.97686497
a   3.6022817      Node   287.53555     +0.89522339     +0.00474799
e   0.3182865      Incl.   11.70674     +0.43620216     -0.21380433
P   6.84
From 2699 observations 1993 June 23-2021 Aug. 2, mean residual 0".8.

・ 星図

・ 光度変化

        m1 =  11.0 + 5 logΔ +  13.0 log r  [    ,-140]  (              〜2021年 5月31日)
        m1 = -25.2 + 5 logΔ + 100   log r  [-140,   0]  (2021年 5月31日〜2021年10月18日)
        m1 =   0.2 + 5 logΔ +  35   log r  [   0,    ]  (2021年10月18日〜              )

---------------------------------------------------------------------

軌道要素はM.P.E.C. 2021-P47に掲載されたものです。
星図はステラナビゲータ Ver.10 (アストロアーツ) で作成したものです。
光度グラフはComet for Windowsで作成したものです。

---------------------------------------------------------------------

Copyright(C) Seiichi Yoshida (comet@aerith.net). All rights reserved.